Temperature
6 6 6 6 5 5 5 5 5 5 5 5 5 5 5 5 5 5 5 5 5 5 5 4 4 4 4 4 4 3 3 3 3 3 3 3 3 3 3 3 3 3 3
5 5 5 5 5 5 5 5 5 5 5 5 5 5 5 5 4 4 4 4 4 4 4 4 4 4 4 3 3 3 3 3 3 3 2 2 2 2 2 2 2 2 2
5 5 5 5 5 5 5 5 4 4 4 4 4 4 4 4 4 4 4 4 4 4 3 3 3 3 3 3 3 3 2 2 2 2 2 2 2 2 2 2 2 2 2
4 4 4 4 4 4 4 4 4 4 4 4 4 4 3 3 3 3 3 3 3 3 3 3 3 3 3 2 2 2 2 2 2 1 1 1 1 1 1 1 1 1 1
4 4 4 4 3 3 3 3 3 3 3 3 3 3 3 3 3 3 3 3 2 2 2 2 2 2 2 2 2 2 2 1 1 1 1 1 1 1 1 0 0 0 0
3 3 3 3 3 3 3 3 3 3 3 3 3 3 2 2 2 2 2 2 2 2 2 2 2 2 2 2 1 1 1 1 1 1 1 0 0 0 -0 -0 -0 -0 -0
3 3 3 2 2 2 2 2 2 2 2 2 2 2 2 2 2 2 2 2 2 2 2 2 2 1 1 1 1 1 1 1 0 0 0 0 0 -0 -0 -1 -1 -1 -1
2 2 2 2 2 2 2 2 2 2 2 2 2 2 2 2 1 1 1 1 1 1 1 1 1 1 1 1 0 0 0 0 0 -0 -0 -0 -0 -1 -1 -1 -1 -1 -1
2 2 2 2 2 1 1 1 1 1 1 1 1 1 1 1 1 1 1 1 0 1 1 1 1 1 0 0 -0 -0 -0 -0 -0 -0 -1 -1 -1 -1 -1 -2 -2 -2 -2
2 2 1 1 1 1 1 1 1 1 1 1 1 1 0 0 0 0 0 0 0 0 0 0 0 -0 -0 -0 -1 -1 -1 -1 -1 -1 -1 -1 -1 -1 -2 -2 -2 -2 -2
1 1 1 1 1 1 1 1 0 0 0 0 0 0 -0 -0 -0 -0 -0 -1 -0 -0 -0 -0 -0 -0 -1 -1 -1 -1 -1 -1 -1 -1 -1 -1 -1 -2 -2 -2 -2 -3 -3
1 0 0 0 0 0 0 0 0 -0 -0 -0 -0 -0 -0 -0 -1 -1 -1 -1 -1 -1 -1 -1 -1 -1 -1 -1 -1 -1 -1 -1 -2 -2 -2 -2 -2 -2 -2 -2 -3 -3 -3
-0 -0 -0 -0 -0 -0 -0 -0 -0 -1 -1 -1 -1 -1 -1 -1 -1 -1 -1 -1 -1 -1 -1 -1 -1 -2 -2 -2 -2 -2 -2 -2 -2 -2 -2 -2 -2 -2 -3 -3 -3 -3 -3
-0 -1 -1 -1 -1 -1 -1 -1 -1 -1 -1 -1 -1 -1 -1 -1 -1 -1 -2 -2 -2 -2 -2 -2 -2 -2 -2 -2 -2 -2 -2 -2 -3 -3 -3 -3 -3 -3 -3 -3 -3 -3 -3
-1 -1 -1 -1 -1 -1 -1 -1 -1 -1 -2 -2 -2 -2 -2 -2 -2 -2 -2 -2 -2 -2 -2 -2 -2 -2 -2 -2 -3 -3 -3 -3 -3 -3 -3 -3 -3 -3 -3 -4 -4 -4 -4
-1 -2 -2 -2 -2 -2 -2 -2 -2 -2 -2 -2 -2 -2 -2 -2 -2 -2 -2 -2 -3 -3 -3 -3 -3 -3 -3 -3 -3 -3 -3 -3 -4 -4 -4 -4 -4 -4 -4 -4 -4 -4 -4
-2 -2 -2 -2 -2 -2 -2 -2 -2 -2 -2 -2 -2 -3 -3 -3 -3 -3 -3 -3 -3 -3 -3 -3 -3 -3 -3 -4 -4 -4 -4 -4 -4 -4 -4 -4 -4 -4 -4 -4 -4 -5 -5
-2 -2 -3 -3 -3 -3 -3 -3 -3 -3 -3 -2 -3 -3 -3 -3 -3 -3 -3 -3 -3 -3 -3 -4 -4 -4 -4 -4 -4 -4 -4 -4 -4 -5 -5 -5 -5 -5 -5 -5 -5 -5 -5
-3 -3 -3 -3 -3 -3 -3 -3 -3 -3 -3 -3 -3 -3 -3 -3 -3 -3 -4 -4 -4 -4 -4 -4 -4 -4 -4 -4 -5 -5 -5 -5 -5 -5 -5 -5 -5 -5 -5 -5 -5 -5 -6
-3 -4 -4 -4 -4 -4 -4 -4 -4 -4 -4 -3 -3 -3 -3 -3 -4 -4 -4 -4 -4 -4 -4 -4 -4 -5 -5 -5 -5 -5 -5 -5 -5 -5 -5 -5 -5 -5 -5 -6 -6 -6 -6
-4 -4 -4 -4 -4 -4 -4 -4 -4 -4 -4 -4 -4 -4 -4 -4 -4 -4 -4 -4 -4 -5 -5 -5 -5 -5 -5 -5 -5 -5 -5 -5 -5 -5 -5 -5 -6 -6 -6 -6 -6 -6 -6
-5 -5 -5 -5 -5 -5 -5 -5 -5 -5 -4 -4 -4 -4 -4 -4 -4 -4 -4 -5 -5 -5 -5 -5 -5 -5 -5 -5 -5 -5 -5 -5 -5 -5 -6 -6 -6 -6 -6 -6 -6 -6 -6
-5 -5 -5 -5 -5 -5 -5 -5 -5 -5 -5 -5 -5 -5 -5 -5 -5 -5 -5 -5 -5 -5 -5 -6 -6 -6 -6 -6 -6 -6 -6 -6 -6 -6 -6 -6 -6 -6 -6 -6 -7 -7 -7
-6 -6 -6 -6 -6 -6 -6 -6 -5 -5 -5 -5 -5 -5 -5 -5 -5 -5 -5 -6 -6 -6 -6 -6 -6 -6 -6 -6 -6 -6 -6 -6 -6 -6 -6 -6 -6 -6 -6 -7 -7 -7 -7
-6 -6 -6 -6 -6 -6 -6 -6 -6 -6 -6 -6 -6 -6 -6 -6 -6 -6 -6 -6 -6 -6 -6 -6 -6 -6 -6 -6 -6 -6 -6 -6 -6 -6 -6 -6 -6 -7 -7 -7 -7 -7 -7
-7 -6 -6 -6 -6 -6 -6 -6 -6 -6 -6 -6 -6 -6 -6 -6 -6 -6 -6 -6 -6 -6 -6 -6 -6 -6 -6 -6 -6 -6 -6 -6 -6 -6 -7 -7 -7 -7 -7 -7 -7 -7 -7
Wind_Speed
4 4 3 3 3 4 3 3 3 3 3 3 3 3 3 2 2 2 2 3 3 2 2 2 3 2 2 2 2 2 2 3 5 5 3 3 3 4 6 7 8 8 9
3 4 4 3 3 3 3 3 3 3 3 3 3 3 3 2 2 2 2 2 3 3 2 3 3 2 2 2 2 2 3 3 4 6 5 3 4 4 4 5 6 7 8
3 4 3 3 3 3 3 3 3 3 3 3 3 3 3 2 2 2 2 2 2 2 3 3 3 3 3 2 2 3 3 3 3 4 5 4 3 3 3 4 5 5 7
3 4 3 3 3 3 3 3 3 3 4 3 3 3 3 3 3 3 2 2 2 2 2 2 3 3 4 3 3 3 3 2 2 3 4 4 4 3 2 4 4 3 5
4 4 3 3 3 3 3 3 3 3 3 3 2 2 2 2 3 3 3 3 2 2 2 2 3 4 4 4 3 3 2 2 3 3 4 4 4 4 3 3 5 4 5
4 3 3 4 4 3 3 3 3 2 2 2 2 2 2 2 3 4 3 3 3 3 2 3 3 3 3 3 4 5 5 4 4 4 5 5 6 5 4 4 4 4 5
3 3 4 4 3 3 3 3 2 2 2 2 2 2 2 3 4 3 3 2 2 3 3 3 3 2 2 2 4 5 6 7 7 5 6 6 6 5 4 5 5 5 7
3 3 4 4 3 3 3 3 2 2 2 2 2 2 2 2 3 3 3 2 2 3 3 4 4 3 3 3 3 3 4 5 6 5 5 6 6 5 5 6 6 5 5
2 3 3 4 3 3 2 2 2 2 1 2 2 2 2 3 3 3 3 2 2 3 3 3 3 4 5 5 3 3 5 5 6 7 8 8 9 8 6 3 3 4 6
2 2 2 3 3 3 3 2 1 2 2 2 2 2 3 3 4 4 3 2 2 2 2 3 4 5 6 5 3 4 5 5 4 4 4 6 5 6 7 4 4 4 4
1 2 2 2 2 2 2 1 1 1 1 1 1 1 2 3 4 4 4 2 3 3 2 2 3 5 6 6 5 4 6 5 3 3 3 3 3 3 4 4 4 4 5
2 2 2 1 1 1 2 1 1 2 2 1 1 1 2 2 3 4 5 5 4 3 3 3 3 5 6 6 5 5 7 5 2 2 2 3 3 4 4 4 6 7 7
1 1 1 1 1 1 2 2 1 1 2 2 2 2 3 2 3 5 5 5 5 3 3 4 4 4 4 4 5 6 5 2 2 2 3 4 4 4 3 4 4 5 6
1 1 1 1 1 1 1 2 2 2 3 3 3 3 3 3 3 2 3 3 3 2 2 2 3 3 3 3 4 4 2 2 2 3 4 4 3 3 3 3 4 4 4
0 0 1 1 1 1 1 2 3 3 4 4 4 4 4 4 5 5 3 2 2 2 1 1 1 1 1 2 2 2 2 2 3 3 3 4 4 4 4 3 3 3 4
0 1 1 1 1 1 1 2 4 4 6 6 6 5 5 6 7 6 6 5 4 3 1 1 2 2 3 3 3 3 3 3 3 3 4 4 4 4 5 4 3 4 5
2 2 1 1 1 2 2 2 3 4 4 5 6 6 5 5 5 5 5 4 4 3 2 3 3 3 3 3 3 3 4 3 3 3 4 4 4 4 4 4 4 4 5
1 2 2 2 2 2 2 3 3 3 3 3 4 5 5 5 5 5 4 2 2 3 2 3 3 3 3 3 3 3 4 3 3 3 4 4 4 4 5 5 4 5 6
1 2 2 2 2 2 2 2 2 3 3 3 3 3 3 3 4 4 3 2 3 3 3 3 3 3 3 4 4 4 4 4 4 3 4 4 4 4 5 5 5 7 6
2 3 2 2 2 2 2 2 2 2 3 3 3 3 2 1 1 2 2 2 3 3 3 4 3 4 3 4 4 4 4 4 4 4 4 4 4 4 5 6 5 5 5
2 2 3 2 2 2 2 3 3 3 3 3 3 4 4 3 3 3 3 3 3 4 4 4 4 4 4 3 3 4 4 4 4 4 4 4 4 4 5 5 5 5 5
2 2 2 2 2 2 3 3 3 3 3 4 3 4 5 3 2 3 3 3 3 3 3 3 4 4 4 4 4 4 4 5 4 4 4 4 4 5 5 5 5 5 5
2 2 3 3 2 4 3 2 3 3 4 4 3 3 3 2 3 3 3 3 3 3 3 3 3 4 4 5 5 5 5 5 5 5 5 5 5 5 5 5 5 6 5
2 3 3 3 3 2 3 3 3 3 3 3 3 3 3 3 3 3 3 3 3 3 3 4 4 5 6 6 6 7 8 8 8 7 7 6 5 5 5 5 5 6 5
2 2 3 3 3 3 3 3 3 3 3 3 3 3 3 3 3 3 3 3 3 4 4 5 5 5 7 7 7 8 9 10 10 9 7 6 6 6 5 5 5 5 5
2 3 3 3 3 3 3 4 4 4 4 4 3 3 3 3 3 3 3 3 3 4 4 4 5 6 7 7 9 10 11 11 11 11 8 6 6 5 5 5 5 5 4
Wind_Direction
165 169 162 166 167 166 170 170 165 155 148 149 152 151 157 161 157 158 176 175 172 187 201 198 215 209 212 222 216 225 241 234 257 277 265 255 254 269 287 283 280 280 281
163 157 161 161 163 162 166 167 160 156 152 150 147 148 151 149 145 159 172 178 175 188 208 206 219 217 217 226 224 235 246 239 238 266 283 273 260 257 267 273 285 282 280
155 150 150 153 162 165 166 158 150 151 149 148 153 158 162 162 161 168 172 187 191 200 211 213 217 209 228 235 241 246 255 259 241 247 273 281 279 273 275 278 280 284 288
149 145 149 159 159 156 150 144 149 155 153 157 167 171 173 174 175 179 181 192 198 217 230 229 221 215 221 225 237 237 242 253 243 246 268 280 280 278 264 274 288 281 286
147 149 157 145 130 125 127 136 141 147 154 159 161 168 177 185 192 187 188 194 196 217 244 251 241 237 239 242 250 240 231 244 251 253 263 276 280 280 269 265 278 288 285
147 155 148 133 126 126 131 131 133 139 150 153 170 182 199 215 212 208 205 195 200 210 235 263 265 256 248 263 269 265 256 249 250 253 260 262 268 268 271 274 279 288 285
143 146 142 137 138 145 144 136 144 154 154 164 184 191 211 228 223 217 224 210 207 222 232 244 260 259 273 249 268 279 275 272 264 255 251 253 256 255 256 267 267 268 270
139 144 144 141 142 145 147 156 162 163 170 182 193 207 217 237 236 233 232 224 222 231 234 235 234 238 242 251 252 266 273 273 270 263 245 250 252 249 242 252 261 273 277
148 151 154 150 151 153 162 172 174 172 182 199 205 207 217 245 249 241 241 210 231 244 246 244 238 240 254 266 260 262 276 280 285 277 274 274 273 271 268 269 272 279 285
177 167 156 152 159 172 185 187 185 183 195 199 211 211 214 234 246 249 252 216 233 252 259 246 248 255 262 266 249 244 264 276 281 293 294 291 287 277 272 257 242 261 276
155 145 142 145 158 169 166 171 173 179 179 195 213 236 235 242 247 250 253 238 224 236 248 256 256 266 269 270 270 251 260 276 269 265 277 287 290 281 277 264 248 242 256
129 134 137 136 142 149 146 158 169 171 180 202 220 267 266 255 257 255 259 261 257 239 242 250 262 275 279 283 283 276 282 292 274 272 274 277 278 277 276 275 267 258 253
123 143 151 143 137 147 159 177 189 189 201 224 223 244 264 265 263 264 267 269 271 271 252 260 271 283 297 298 292 293 297 284 270 276 275 274 269 269 283 290 287 279 277
133 164 169 154 141 148 187 199 201 206 216 228 234 245 260 268 264 260 255 262 262 271 270 261 276 288 296 294 300 301 291 265 261 258 269 277 281 279 279 277 281 286 290
120 206 169 170 188 217 242 231 230 231 227 227 228 229 236 253 258 263 268 257 244 242 264 276 276 277 280 286 291 288 286 285 282 274 277 284 287 287 285 278 271 279 279
234 270 245 232 242 249 269 298 286 267 266 259 249 246 251 255 263 264 267 268 268 253 269 246 257 261 261 267 274 282 280 273 272 272 274 274 279 282 286 283 275 272 278
229 244 249 231 231 247 260 265 289 304 288 273 263 259 258 256 257 261 263 264 259 251 260 249 251 254 259 262 265 269 274 270 266 266 269 274 280 283 281 281 279 277 280
249 253 252 237 234 241 248 256 258 264 284 293 278 264 261 256 254 254 254 267 258 252 247 250 254 254 257 258 260 264 269 273 270 266 267 272 274 277 279 279 277 275 281
261 258 254 249 245 251 256 262 265 265 269 282 297 288 273 264 256 250 246 240 242 253 254 255 255 253 255 258 259 259 261 265 267 267 267 267 269 270 274 275 275 281 281
270 277 277 261 254 259 257 259 263 263 266 268 272 277 283 281 253 248 242 237 244 254 255 255 258 255 253 254 256 255 258 262 266 266 267 270 271 270 271 273 276 278 279
276 280 288 283 260 252 253 256 257 259 264 269 272 272 272 260 247 250 251 247 245 250 254 255 257 257 254 254 252 251 253 258 260 263 266 272 275 276 276 275 276 275 276
279 275 276 271 268 264 262 258 260 263 266 269 279 280 276 273 259 262 262 260 256 253 251 252 257 256 251 249 248 251 254 257 259 260 265 270 276 279 281 279 278 279 278
291 291 288 282 275 274 279 275 271 271 272 271 274 279 277 265 266 270 271 270 265 263 251 243 254 258 249 245 243 242 250 255 256 253 260 266 272 276 278 275 275 278 278
281 282 287 289 288 277 271 274 275 276 277 275 275 275 273 269 270 273 278 282 278 272 259 252 251 255 257 257 256 253 252 256 255 249 246 253 261 269 271 270 272 273 274
279 279 283 281 278 274 273 275 276 278 279 278 276 275 276 274 273 274 273 271 272 273 269 260 254 255 258 260 261 262 266 266 263 258 249 244 251 257 261 266 270 274 271
291 288 287 283 279 272 269 270 274 277 277 277 276 274 276 276 278 280 279 276 277 274 272 265 262 264 267 267 269 272 275 273 270 265 255 240 242 250 255 262 265 267 267
Height
1463 1464 1465 1467 1468 1470 1471 1471 1473 1474 1475 1476 1477 1478 1480 1481 1482 1483 1484 1485 1485 1486 1487 1488 1488 1489 1489 1490 1490 1490 1491 1490 1488 1485 1486 1486 1486 1486 1485 1485 1484 1483 1482
1461 1462 1463 1464 1465 1467 1468 1469 1470 1472 1473 1474 1475 1475 1476 1478 1479 1480 1480 1481 1482 1483 1483 1484 1484 1484 1485 1485 1485 1486 1486 1486 1484 1481 1480 1481 1481 1481 1480 1479 1479 1478 1477
1458 1459 1460 1461 1463 1464 1465 1467 1468 1470 1471 1471 1472 1473 1474 1475 1476 1476 1477 1478 1479 1479 1480 1480 1480 1480 1480 1481 1481 1481 1481 1481 1480 1478 1476 1476 1476 1476 1475 1474 1473 1472 1471
1456 1457 1458 1459 1460 1461 1463 1465 1466 1467 1468 1469 1470 1470 1471 1472 1473 1474 1474 1475 1475 1476 1476 1476 1476 1476 1476 1477 1477 1477 1477 1476 1475 1474 1472 1471 1471 1470 1470 1468 1467 1466 1466
1454 1455 1456 1457 1458 1459 1461 1462 1464 1465 1466 1467 1467 1468 1469 1469 1470 1471 1471 1471 1472 1472 1472 1472 1472 1472 1473 1473 1473 1472 1472 1471 1470 1469 1468 1467 1466 1465 1464 1463 1462 1460 1459
1452 1453 1454 1455 1456 1458 1459 1460 1461 1463 1464 1464 1465 1465 1466 1467 1467 1468 1468 1468 1468 1468 1468 1468 1469 1469 1468 1469 1469 1468 1468 1467 1466 1465 1464 1463 1461 1461 1460 1459 1457 1455 1453
1450 1451 1452 1453 1455 1456 1457 1458 1459 1460 1461 1461 1462 1463 1463 1464 1464 1465 1465 1465 1465 1465 1465 1465 1465 1465 1465 1464 1464 1464 1463 1463 1463 1462 1460 1458 1457 1456 1455 1454 1453 1451 1449
1448 1449 1450 1451 1452 1454 1455 1455 1456 1457 1458 1459 1459 1460 1460 1461 1461 1462 1462 1462 1462 1462 1462 1462 1461 1461 1460 1460 1460 1459 1458 1458 1458 1457 1456 1454 1453 1452 1451 1450 1448 1446 1444
1446 1447 1448 1449 1450 1451 1452 1453 1454 1454 1455 1456 1456 1457 1457 1458 1458 1458 1459 1459 1458 1458 1458 1458 1458 1457 1456 1456 1456 1455 1454 1453 1452 1452 1451 1450 1448 1447 1447 1445 1444 1442 1439
1445 1446 1447 1447 1448 1449 1450 1450 1451 1452 1452 1453 1454 1454 1454 1454 1455 1455 1455 1455 1455 1454 1454 1454 1454 1453 1453 1452 1452 1451 1449 1448 1447 1446 1446 1445 1444 1443 1442 1441 1439 1437 1435
1443 1444 1445 1445 1446 1447 1448 1448 1449 1449 1450 1450 1450 1451 1451 1451 1451 1452 1452 1452 1451 1451 1450 1450 1450 1449 1449 1448 1448 1446 1445 1444 1443 1442 1441 1440 1439 1438 1437 1436 1435 1433 1431
1442 1442 1442 1443 1444 1444 1445 1446 1446 1447 1447 1447 1447 1447 1448 1448 1448 1448 1448 1448 1448 1447 1447 1446 1446 1446 1445 1444 1443 1442 1441 1440 1439 1438 1437 1435 1434 1433 1432 1431 1430 1428 1427
1440 1440 1441 1441 1442 1442 1442 1443 1443 1444 1444 1444 1444 1444 1444 1444 1444 1444 1444 1444 1444 1443 1443 1442 1442 1442 1441 1440 1439 1438 1437 1436 1435 1434 1432 1431 1430 1429 1427 1426 1424 1423 1421
1438 1438 1439 1439 1439 1440 1440 1440 1440 1440 1441 1440 1440 1440 1440 1440 1440 1440 1440 1440 1440 1439 1439 1438 1438 1438 1437 1436 1435 1434 1433 1432 1431 1430 1428 1427 1425 1424 1423 1421 1420 1418 1416
1436 1437 1437 1437 1437 1437 1437 1438 1438 1438 1438 1438 1437 1438 1437 1437 1437 1437 1437 1436 1436 1436 1435 1435 1434 1434 1433 1432 1431 1430 1429 1428 1427 1426 1425 1423 1421 1420 1418 1417 1416 1414 1412
1435 1435 1435 1435 1435 1435 1435 1435 1435 1435 1435 1435 1435 1435 1435 1435 1434 1434 1434 1433 1433 1433 1432 1431 1430 1429 1429 1428 1427 1426 1425 1424 1423 1422 1421 1419 1418 1416 1414 1413 1412 1410 1408
1433 1433 1433 1432 1432 1432 1432 1432 1432 1432 1432 1432 1432 1432 1432 1431 1431 1431 1430 1430 1429 1429 1428 1427 1426 1426 1425 1424 1423 1422 1421 1420 1419 1418 1417 1416 1414 1412 1411 1409 1408 1406 1404
1431 1430 1430 1430 1430 1430 1430 1429 1429 1429 1428 1428 1428 1428 1428 1428 1427 1427 1427 1426 1425 1425 1424 1423 1422 1422 1421 1420 1419 1418 1417 1416 1415 1414 1413 1412 1410 1409 1407 1405 1404 1402 1400
1428 1428 1428 1428 1427 1427 1427 1427 1426 1426 1425 1424 1424 1424 1424 1424 1424 1424 1423 1423 1422 1421 1420 1420 1419 1418 1417 1417 1416 1415 1414 1413 1412 1411 1409 1408 1406 1405 1403 1402 1400 1398 1397
1425 1425 1425 1425 1424 1424 1424 1423 1423 1422 1422 1421 1421 1421 1421 1420 1420 1419 1419 1419 1418 1417 1417 1416 1415 1414 1413 1413 1412 1411 1410 1409 1408 1406 1405 1404 1402 1401 1399 1398 1396 1395 1393
1422 1422 1422 1421 1421 1421 1420 1420 1420 1419 1419 1418 1418 1418 1417 1417 1416 1416 1415 1415 1414 1413 1413 1412 1411 1410 1410 1409 1408 1407 1406 1405 1404 1403 1401 1400 1399 1397 1395 1394 1392 1391 1389
1419 1419 1418 1418 1418 1417 1417 1417 1416 1416 1415 1415 1414 1414 1414 1413 1413 1412 1411 1411 1410 1410 1409 1408 1407 1406 1405 1405 1404 1403 1401 1400 1399 1399 1397 1396 1395 1393 1392 1390 1389 1387 1385
1416 1416 1415 1415 1414 1414 1414 1413 1413 1412 1412 1411 1411 1410 1410 1409 1409 1408 1408 1407 1406 1405 1405 1404 1403 1402 1401 1400 1399 1398 1397 1396 1395 1394 1393 1392 1391 1390 1388 1386 1385 1383 1382
1413 1413 1412 1412 1411 1411 1410 1410 1410 1409 1409 1408 1407 1407 1406 1406 1405 1404 1404 1403 1402 1401 1400 1399 1398 1397 1396 1396 1395 1393 1392 1391 1390 1389 1389 1388 1386 1385 1384 1383 1381 1380 1379
1410 1410 1409 1409 1408 1408 1407 1407 1406 1406 1405 1405 1404 1404 1403 1402 1402 1401 1400 1399 1398 1397 1396 1395 1394 1393 1392 1391 1390 1388 1387 1386 1385 1384 1383 1383 1382 1381 1380 1379 1378 1377 1376
1407 1406 1406 1405 1405 1404 1404 1403 1403 1402 1402 1401 1401 1400 1399 1398 1398 1397 1396 1395 1393 1392 1391 1390 1389 1388 1387 1386 1384 1383 1382 1380 1379 1379 1378 1378 1377 1377 1376 1375 1374 1374 1373